[[{"header":{"parameterUnit":"m.s-1","parameterCategory":1,"la1":30.2991,"la2":30.254,"lo1":-89.0895,"lo2":-89.0444,"dy":0.0017,"dx":0.0017,"nx":28,"ny":28,"refTime":"2024-08-19T21:00:00:Z","depth":0,"parameterNumber":2,"parameterNumberName":"U-component_of_WINDS"},"data":[0,0,0,0,0,0,0,0,0,0,0,0,0,0,0,0,0,0,0,0,0,0,0,0,0,0,0,0,0,0,0,0,0,0,0,0,0,0,0,0,0,0,0,0,0,0,0,0,0,0,0,0,0,0,0,0,0,0,0.3834,0.3836,0,0.3976,0.3978,0.398,0.41,0.4101,0.4102,0.4104,0.4247,0.425,0.4252,0,0,0,0,0,0,0,0,0,0,0,0,0,0.3663,0.3666,0.3834,0.3836,0.3837,0.3976,0.3978,0.398,0.41,0.4101,0.4103,0.4104,0.4246,0.4249,0.4252,0,0,0,0,0,0,0,0,0,0,0,0,0,0.3765,0.3667,0.3834,0.3914,0.3923,0.3976,0.3978,0.3981,0.4099,0.4101,0.4103,0.4105,0.4245,0.4249,0.4253,0.4237,0,0,0.4265,0.4266,0,0,0,0,0,0,0,0,0.3759,0.3771,0.39,0.3908,0.3918,0.4022,0.3971,0.4066,0.4099,0.4032,0.4104,0.4106,0.4171,0.4181,0.4203,0.4244,0.425,0.4265,0.4267,0.4269,0.427,0,0,0,0,0,0,0,0.3752,0.3765,0.389,0.3902,0.3913,0.3942,0.3959,0.3989,0.4088,0.4038,0.4047,0.4062,0.4176,0.4199,0.4207,0.4252,0.4265,0.4268,0.4271,0.4272,0.4285,0.4283,0,0,0,0,0,0,0.3732,0.3759,0.3886,0.3895,0.3842,0.3943,0.3962,0.3987,0.4088,0.4106,0.4061,0.4067,0.4191,0.4203,0.4213,0.4199,0.4269,0.4273,0.4275,0.4287,0.4285,0.4283,0,0,0,0,0,0,0.3728,0.3743,0.388,0.3829,0.3849,0.3944,0.3971,0.3989,0.4012,0.4106,0.4124,0.4066,0.4193,0.4207,0.423,0.4206,0.4274,0.4278,0.4289,0.4286,0.4284,0.4172,0,0,0,0,0,0,0.3723,0.374,0.3736,0.3828,0.3851,0.3895,0.397,0.399,0.4019,0.4029,0.4115,0.4132,0.4196,0.4223,0.4234,0.4212,0.4281,0.4292,0.4288,0.4285,0.4178,0.4165,0.4154,0,0,0,0,0,0.3716,0.3699,0.3735,0.375,0.3848,0.3893,0.3906,0.3981,0.4016,0.4012,0.4072,0.4129,0.4207,0.4225,0.4237,0.4216,0.4294,0.4289,0.4285,0.4183,0.4168,0.4155,0,0,0,0,0,0,0.3601,0.3712,0.3754,0.3766,0.3819,0.3914,0.391,0.3963,0.4007,0.4015,0.4106,0.4124,0.4136,0.418,0.4197,0.4206,0.4258,0.4256,0.4176,0.4163,0.4151,0.4139,0.4284,0,0,0,0,0,0.3577,0.3605,0.3701,0.3702,0.3727,0.3814,0.3837,0.389,0.3949,0.3972,0.4034,0.4087,0.4124,0.4147,0.4186,0.4186,0.4205,0.4178,0.4166,0.4156,0.4152,0.4153,0.4141,0.4268,0.4268,0.4268,0,0,0.3527,0.3592,0.3604,0.3681,0.3728,0.3754,0.3832,0.3857,0.3877,0.3976,0.4,0.4047,0.4113,0.4124,0.4132,0.416,0.4122,0.415,0.4142,0.4143,0.4147,0.4134,0.4124,0.4265,0.4265,0.4266,0,0,0.3449,0.3502,0.3507,0.3554,0.3625,0.3683,0.3684,0.3771,0.3806,0.3832,0.3906,0.3931,0.3993,0.4037,0.4067,0.4005,0.4058,0.4016,0.3953,0.3952,0.3942,0.3934,0.3908,0.3899,0.4012,0.4012,0.4012,0,0.3377,0.3421,0.3503,0.3524,0.3554,0.3646,0.3651,0.3692,0.3772,0.379,0.3822,0.39,0.3952,0.3972,0.3957,0.398,0.3982,0.4004,0.3937,0.3929,0.3923,0.3899,0.389,0.4006,0.4006,0.4007,0.4008,0,0.3328,0.3357,0.3353,0.3427,0.3458,0.3471,0.3554,0.3575,0.3626,0.368,0.3705,0.377,0.3823,0.3832,0.3882,0.3859,0.3875,0.392,0.3974,0.3903,0.3883,0.3875,0.3997,0.3999,0.4001,0.4003,0,0,0.3179,0.33,0.3296,0.3331,0.3416,0.344,0.3456,0.3508,0.3523,0.3576,0.359,0.364,0.3683,0.3717,0.3773,0.3773,0.3716,0.3819,0.3822,0.3794,0.3691,0.3653,0.3642,0.3753,0.3752,0.3751,0.3684,0,0.3112,0.3146,0.3221,0.3232,0.3258,0.3345,0.336,0.3413,0.3464,0.3493,0.355,0.3582,0.3638,0.3659,0.3663,0.3722,0.3696,0.3728,0.3764,0.3765,0.3741,0.3632,0.3592,0.3526,0.3677,0.3676,0.3675,0,0.3038,0.3085,0.3097,0.318,0.3194,0.3205,0.3258,0.3286,0.3348,0.3385,0.3422,0.3484,0.3505,0.3556,0.3584,0.3604,0.3624,0.3655,0.3655,0.3658,0.3713,0.3628,0.3507,0.3495,0.3664,0.3665,0.3666,0,0.2923,0.299,0.3006,0.3033,0.3131,0.3136,0.3177,0.3241,0.3267,0.3314,0.3331,0.3379,0.3404,0.344,0.3512,0.3544,0.3531,0.3589,0.3559,0.3557,0.355,0.3548,0.3426,0.3568,0.3569,0.3569,0.3569,0,0.2838,0.2842,0.2955,0.2964,0.297,0.3057,0.306,0.3109,0.3165,0.3184,0.3264,0.328,0.3377,0.3404,0.3461,0.3473,0.3485,0.3514,0.3528,0.3505,0.35,0.3516,0.3521,0.3566,0.3567,0.3567,0.3568,0,0.2709,0.2786,0.2808,0.2899,0.2922,0.2922,0.3,0.3011,0.3068,0.3091,0.3101,0.3189,0.3225,0.3302,0.3359,0.3397,0.3394,0.3423,0.3372,0.3381,0.3345,0.3346,0.3225,0.3212,0.3366,0.3364,0.3363,0,0.2648,0.2653,0.2744,0.2763,0.2801,0.2831,0.2858,0.2943,0.2968,0.3038,0.304,0.3083,0.3121,0.3173,0.3241,0.3285,0.3312,0.3267,0.3319,0.3294,0.3307,0.3304,0.3303,0.3254,0.3252,0.325,0.3249,0,0.253,0.2568,0.2604,0.2653,0.2683,0.2726,0.2773,0.2783,0.288,0.2903,0.2941,0.297,0.3028,0.3068,0.3121,0.3163,0.322,0.3233,0.3227,0.3201,0.317,0.3182,0.3337,0.3234,0.3236,0.3237,0.3237,0.3238,0.2431,0.2438,0.2503,0.2541,0.2585,0.2627,0.2641,0.27,0.2733,0.2787,0.2836,0.2868,0.2929,0.3007,0.3044,0.307,0.3099,0.3092,0.3089,0.3085,0.3073,0.3169,0.308,0.3081,0.3081,0.3082,0.3082,0,0.2314,0.2361,0.2394,0.2457,0.2486,0.2541,0.2595,0.2615,0.2642,0.2695,0.2731,0.2772,0.2812,0.2883,0.2928,0.2934,0.2961,0.2942,0.2941,0.2948,0.3047,0.3045,0.2919,0.2919,0.2919,0.2919,0.2919,0.2919,0.2256,0.227,0.2315,0.2352,0.2399,0.2431,0.2457,0.2495,0.2538,0.2581,0.2614,0.2661,0.272,0.277,0.2807,0.2827,0.2838,0.281,0.2837,0.2927,0.2942,0.2956,0.2955,0.2812,0.2812,0.2737,0.2736,0.2735]},{"header":{"parameterUnit":"m.s-1","parameterCategory":1,"la1":30.2991,"la2":30.254,"lo1":-89.0895,"lo2":-89.0444,"dy":0.0017,"dx":0.0017,"nx":28,"ny":28,"refTime":"2024-08-19T21:00:00:Z","depth":0,"parameterNumber":3,"parameterNumberName":"V-component_of_WINDS"},"data":[0,0,0,0,0,0,0,0,0,0,0,0,0,0,0,0,0,0,0,0,0,0,0,0,0,0,0,0,0,0,0,0,0,0,0,0,0,0,0,0,0,0,0,0,0,0,0,0,0,0,0,0,0,0,0,0,0,0,-2.5261,-2.5261,0,-2.5271,-2.5271,-2.5271,-2.5273,-2.5273,-2.5273,-2.5273,-2.5282,-2.5282,-2.5283,0,0,0,0,0,0,0,0,0,0,0,0,0,-2.5241,-2.5242,-2.5261,-2.5261,-2.5261,-2.5271,-2.5271,-2.5271,-2.5273,-2.5273,-2.5273,-2.5273,-2.5282,-2.5282,-2.5283,0,0,0,0,0,0,0,0,0,0,0,0,0,-2.525,-2.5242,-2.5261,-2.5263,-2.5264,-2.5271,-2.5271,-2.5271,-2.5273,-2.5273,-2.5273,-2.5273,-2.5282,-2.5282,-2.5283,-2.5288,0,0,-2.5284,-2.5284,0,0,0,0,0,0,0,0,-2.525,-2.5251,-2.5263,-2.5263,-2.5264,-2.5271,-2.5267,-2.5277,-2.5273,-2.527,-2.5273,-2.5273,-2.5278,-2.5279,-2.5281,-2.5288,-2.5289,-2.5284,-2.5285,-2.5285,-2.5285,0,0,0,0,0,0,0,-2.5249,-2.5251,-2.5265,-2.5263,-2.5263,-2.5263,-2.5264,-2.5269,-2.5274,-2.527,-2.527,-2.5271,-2.5279,-2.5281,-2.5281,-2.5289,-2.5284,-2.5285,-2.5285,-2.5285,-2.5299,-2.5299,0,0,0,0,0,0,-2.5248,-2.525,-2.5264,-2.5265,-2.5256,-2.5264,-2.5265,-2.5268,-2.5274,-2.5275,-2.5271,-2.5271,-2.528,-2.5281,-2.5282,-2.5287,-2.5285,-2.5285,-2.5285,-2.5299,-2.5299,-2.5299,0,0,0,0,0,0,-2.5248,-2.525,-2.5264,-2.5258,-2.5259,-2.5264,-2.5268,-2.5269,-2.5271,-2.5276,-2.5276,-2.5273,-2.528,-2.5281,-2.5286,-2.5288,-2.5285,-2.5286,-2.5299,-2.5299,-2.5299,-2.5299,0,0,0,0,0,0,-2.5247,-2.5249,-2.5252,-2.5258,-2.526,-2.5269,-2.5268,-2.5269,-2.5272,-2.5272,-2.5277,-2.5278,-2.528,-2.5285,-2.5287,-2.5288,-2.5286,-2.5299,-2.5299,-2.5299,-2.5299,-2.5299,-2.5299,0,0,0,0,0,-2.5247,-2.5252,-2.5252,-2.5254,-2.5263,-2.5269,-2.527,-2.5273,-2.5272,-2.5274,-2.5277,-2.5278,-2.5287,-2.5286,-2.5287,-2.5289,-2.5299,-2.5299,-2.5299,-2.5299,-2.5299,-2.5299,0,0,0,0,0,0,-2.5246,-2.5252,-2.5253,-2.526,-2.5264,-2.5269,-2.5272,-2.5273,-2.5277,-2.5277,-2.528,-2.5281,-2.5285,-2.5288,-2.5286,-2.5293,-2.5293,-2.5293,-2.5292,-2.5292,-2.5293,-2.5292,-2.5287,0,0,0,0,0,-2.5247,-2.5251,-2.5256,-2.5262,-2.5264,-2.5268,-2.527,-2.5272,-2.5276,-2.5278,-2.5281,-2.5284,-2.5288,-2.529,-2.5294,-2.5299,-2.53,-2.5301,-2.5301,-2.5301,-2.5301,-2.5303,-2.5304,-2.53,-2.53,-2.53,0,0,-2.5248,-2.5252,-2.5255,-2.5262,-2.5265,-2.5269,-2.5269,-2.5274,-2.5277,-2.5278,-2.5283,-2.5285,-2.5289,-2.5294,-2.5296,-2.5296,-2.5303,-2.5301,-2.5301,-2.5302,-2.5304,-2.5304,-2.5304,-2.53,-2.53,-2.53,0,0,-2.5253,-2.5257,-2.5262,-2.5264,-2.5269,-2.5271,-2.5272,-2.5277,-2.5279,-2.5284,-2.5285,-2.5288,-2.5294,-2.5297,-2.5299,-2.5303,-2.5303,-2.5304,-2.5305,-2.5307,-2.5307,-2.5308,-2.5309,-2.5309,-2.5304,-2.5304,-2.5304,0,-2.5254,-2.5261,-2.5264,-2.5268,-2.5271,-2.5272,-2.5276,-2.5279,-2.5284,-2.5286,-2.5285,-2.5293,-2.5296,-2.5301,-2.5301,-2.5303,-2.5304,-2.5304,-2.5307,-2.5307,-2.5308,-2.5309,-2.5309,-2.5304,-2.5304,-2.5304,-2.5304,0,-2.5262,-2.5267,-2.527,-2.5275,-2.5278,-2.5282,-2.5285,-2.5287,-2.5288,-2.529,-2.5294,-2.5297,-2.5301,-2.5302,-2.5303,-2.5307,-2.5307,-2.5307,-2.5306,-2.5308,-2.5309,-2.531,-2.5304,-2.5304,-2.5304,-2.5304,0,0,-2.5268,-2.5274,-2.5275,-2.5277,-2.5282,-2.5285,-2.5288,-2.5292,-2.5294,-2.5297,-2.53,-2.5305,-2.5304,-2.5307,-2.5308,-2.5309,-2.5312,-2.5309,-2.5309,-2.5309,-2.5315,-2.5316,-2.5316,-2.5312,-2.5312,-2.5312,-2.5315,0,-2.5274,-2.5281,-2.5283,-2.5289,-2.5292,-2.5293,-2.5296,-2.5298,-2.53,-2.5303,-2.5304,-2.5307,-2.5307,-2.5308,-2.5309,-2.5311,-2.5313,-2.5311,-2.5314,-2.5314,-2.5313,-2.5317,-2.5317,-2.532,-2.5315,-2.5315,-2.5315,0,-2.5282,-2.5285,-2.5291,-2.5294,-2.5296,-2.5299,-2.5302,-2.5304,-2.5307,-2.5308,-2.531,-2.531,-2.5313,-2.5312,-2.5315,-2.5314,-2.5315,-2.5316,-2.5316,-2.5317,-2.5315,-2.5317,-2.5321,-2.5321,-2.5316,-2.5316,-2.5316,0,-2.5285,-2.5291,-2.5295,-2.5297,-2.5301,-2.5302,-2.5304,-2.5306,-2.5308,-2.531,-2.5311,-2.5314,-2.5315,-2.5317,-2.5318,-2.5317,-2.5321,-2.532,-2.5322,-2.5322,-2.5323,-2.5323,-2.5327,-2.5323,-2.5323,-2.5323,-2.5323,0,-2.5291,-2.5295,-2.5297,-2.53,-2.5303,-2.5305,-2.5308,-2.531,-2.5311,-2.5314,-2.5314,-2.5316,-2.5317,-2.5319,-2.5319,-2.5322,-2.5322,-2.5323,-2.5323,-2.5323,-2.5323,-2.5324,-2.5324,-2.5323,-2.5323,-2.5323,-2.5323,0,-2.5296,-2.5298,-2.5303,-2.5305,-2.5306,-2.5308,-2.531,-2.5313,-2.5313,-2.5316,-2.5317,-2.5318,-2.532,-2.5321,-2.5324,-2.5324,-2.5327,-2.5327,-2.5326,-2.5326,-2.5328,-2.5328,-2.5333,-2.5333,-2.5329,-2.5329,-2.5329,0,-2.5301,-2.5304,-2.5306,-2.5308,-2.5309,-2.5312,-2.5314,-2.5314,-2.5316,-2.5318,-2.532,-2.5322,-2.5324,-2.5327,-2.5328,-2.5329,-2.5329,-2.5331,-2.533,-2.5329,-2.5329,-2.5329,-2.5329,-2.5331,-2.5331,-2.5331,-2.5331,0,-2.5308,-2.5308,-2.531,-2.5313,-2.5315,-2.5317,-2.5319,-2.532,-2.532,-2.5322,-2.5324,-2.5326,-2.5328,-2.533,-2.5331,-2.5332,-2.5332,-2.5332,-2.5332,-2.5332,-2.5332,-2.5332,-2.5327,-2.5332,-2.5332,-2.5332,-2.5332,-2.5332,-2.5312,-2.5315,-2.5316,-2.5319,-2.532,-2.5322,-2.5323,-2.5324,-2.5326,-2.5328,-2.5328,-2.533,-2.5331,-2.5333,-2.5334,-2.5335,-2.5335,-2.5335,-2.5335,-2.5336,-2.5336,-2.5331,-2.5335,-2.5335,-2.5335,-2.5335,-2.5335,0,-2.5319,-2.532,-2.5322,-2.5325,-2.5326,-2.5325,-2.5327,-2.5328,-2.533,-2.5331,-2.5333,-2.5335,-2.5336,-2.5337,-2.5338,-2.5339,-2.5338,-2.5339,-2.5339,-2.5339,-2.5336,-2.5336,-2.5339,-2.5339,-2.5339,-2.5339,-2.5339,-2.5339,-2.5323,-2.5327,-2.5327,-2.533,-2.5331,-2.5333,-2.5334,-2.5335,-2.5336,-2.5338,-2.5339,-2.5339,-2.5339,-2.534,-2.5341,-2.5341,-2.5342,-2.5342,-2.5342,-2.534,-2.5339,-2.5339,-2.5339,-2.5342,-2.5342,-2.5345,-2.5345,-2.5345]}]]